Stations météo

Publicité
Agen, France (7524): Température de l'air & dewpoint: 17.02.2017 01:00:00 - 23.02.2017 01:00:00 (CET)Agen, France (7524): Température de l'air 5cm: 17.02.2017 01:00:00 - 23.02.2017 01:00:00 (CET)Agen, France (7524): Température de l'air -20cm & Température de l'air -100cm: 17.02.2017 01:00:00 - 23.02.2017 01:00:00 (CET)Agen, France (7524): Vitesse du vent & gusts: 17.02.2017 01:00:00 - 23.02.2017 01:00:00 (CET)Agen, France (7524): Direction du vent: 17.02.2017 01:00:00 - 23.02.2017 01:00:00 (CET)Agen, France (7524): reduced air pressure: 17.02.2017 01:00:00 - 23.02.2017 01:00:00 (CET)Agen, France (7524): visibility: 17.02.2017 01:00:00 - 23.02.2017 01:00:00 (CET)Agen, France (7524): Ensoleillement: 17.02.2017 01:00:00 - 23.02.2017 01:00:00 (CET)Agen, France (7524): Quantités de précipitations: 17.02.2017 01:00:00 - 23.02.2017 01:00:00 (CET)
Date & Time tt [°C] td [°C] tt 5cm [°C] tt -20cm [°C] tt -100cm [°C] ff [km/h] ff [knt] fx [km/h] fx [knt] dd ppp [hPa] vv [km] sd [min] rr [mm]
23.02.2017 01:00:00 2,5 1,8 -2,9 9,4 9,5 7 4 8 5 ESE 1018,4 0,5 0 0,0
23.02.2017 00:00:00 3,3 2,3 -2,8 9,4 9,5 3 2 5 3 ESE 1019,1 4,3 0 0,0
22.02.2017 23:00:00 3,9 2,7 -2,0 9,4 9,5 0 0 2 1 N 1019,4 0,2 0 0,0
22.02.2017 22:00:00 5,2 3,8 -0,9 9,4 9,5 0 0 3 2 N 1020,1 5 0 0,0
22.02.2017 21:00:00 7,2 5,5 -0,1 9,4 9,5 0 0 5 3 N 1020,3 4,7 0 0,0
22.02.2017 20:00:00 9,3 6,9 3,5 9,3 9,5 4 2 7 4 NNW 1020,5 20 0 0,0
22.02.2017 19:00:00 10,4 7,3 6,1 9,2 9,5 6 3 13 7 NNW 1020,7 19 15 0,0
22.02.2017 18:00:00 13,8 8,6 12,6 9,1 9,5 10 6 15 8 NNW 1020,5 37 60 0,0
22.02.2017 17:00:00 15,6 8,6 16,6 9,0 9,5 6 3 15 8 NW 1020,7 41 60 0,0
22.02.2017 16:00:00 16,0 9,0 26,1 8,9 9,4 6 3 13 7 NW 1021,1 28 60 0,0
22.02.2017 15:00:00 15,2 8,7 28,9 8,9 9,4 8 4 16 9 NW 1021,8 20 60 0,0
22.02.2017 14:00:00 16,2 8,7 18,9 8,8 9,4 5 3 15 8 W 1022,7 18 55 0,0
22.02.2017 13:00:00 13,8 8,0 20,3 8,8 9,5 4 2 10 5 WNW 1023,7 7 0 0,0
22.02.2017 12:00:00 14,3 8,5 22,0 8,8 9,4 3 1 7 4 W 1024,1 9 49 0,0
22.02.2017 11:00:00 12,7 8,6 14,0 8,8 9,5 2 1 6 3 NE 1024,2 17 38 0,0
22.02.2017 10:00:00 9,8 8,4 8,5 8,8 9,4 0 0 3 2 N 1024,7 10 0 0,0
22.02.2017 09:00:00 7,6 6,7 7,4 8,8 9,5 3 1 5 3 E 1024,7 14 0 0,0
22.02.2017 08:00:00 7,4 6,7 6,7 8,8 9,5 3 1 4 2 E 1024,3 12 0 0,0
22.02.2017 07:00:00 6,8 6,2 3,2 8,9 9,5 0 0 2 1 N 1024,1 13 0 0,0
22.02.2017 06:00:00 6,2 5,5 2,1 8,9 9,5 0 0 2 1 N 1024,4 3,8 0 0,0
22.02.2017 05:00:00 5,6 4,6 0,4 8,9 9,5 0 0 4 2 N 1024,4 0,1 0 0,0
22.02.2017 04:00:00 7,5 6,6 2,6 9,0 9,5 2 1 3 2 NW 1024,6 9 0 0,0
22.02.2017 03:00:00 8,4 6,9 4,3 9,0 9,5 0 0 4 2 N 1025,0 11 0 0,0
22.02.2017 02:00:00 9,2 7,6 8,0 9,0 9,4 4 2 5 3 W 1025,3 15 0 0,0
22.02.2017 01:00:00 9,0 7,6 7,8 9,0 9,5 4 2 6 4 WSW 1025,6 16 0 0,0
22.02.2017 00:00:00 8,0 6,9 3,7 9,0 9,5 3 1 5 3 WNW 1025,6 16 0 0,0
21.02.2017 23:00:00 7,0 6,1 0,2 9,0 9,5 2 1 4 2 WNW 1025,6 14 0 0,0
21.02.2017 22:00:00 7,0 5,6 0,4 9,0 9,5 0 0 4 2 N 1025,6 9 0 0,0
21.02.2017 21:00:00 8,7 6,8 2,1 9,0 9,5 3 1 3 2 WSW 1025,4 31 0 0,0
21.02.2017 20:00:00 11,4 7,9 4,9 8,9 9,5 3 2 8 4 WNW 1025,4 30 0 0,0
21.02.2017 19:00:00 13,5 8,3 11,7 8,8 9,5 7 4 16 9 N 1025,1 51 0 0,0
21.02.2017 18:00:00 15,1 7,9 14,8 8,7 9,5 0 0 6 3 N 1024,8 16 0 0,0
21.02.2017 17:00:00 16,0 7,7 19,2 8,6 9,5 3 2 9 5 NW 1024,8 2,5 16 0,0
21.02.2017 16:00:00 15,3 7,3 19,0 8,5 9,5 3 2 13 7 NNW 1025,2 58 36 0,0
21.02.2017 15:00:00 16,8 7,2 29,3 8,3 9,5 8 4 24 13 WSW 1025,6 60 60 0,0
21.02.2017 14:00:00 15,6 7,4 26,3 8,3 9,5 3 2 13 7 NNE 1026,5 19 56 0,0
21.02.2017 13:00:00 14,7 7,5 26,8 8,2 9,4 5 3 15 8 W 1027,4 54 60 0,0
21.02.2017 12:00:00 14,1 7,4 20,1 8,2 9,5 6 3 13 7 SW 1028,2 59 60 0,0
21.02.2017 11:00:00 11,4 6,9 13,6 8,2 9,5 6 3 11 6 WNW 1028,4 20 58 0,0
21.02.2017 10:00:00 9,1 6,2 8,2 8,2 9,5 3 2 5 3 N 1028,4 10 0 0,0
21.02.2017 09:00:00 7,4 6,2 5,3 8,3 9,5 0 0 6 3 N 1028,4 8 0 0,0
21.02.2017 08:00:00 6,7 6,0 6,3 8,3 9,5 3 1 4 2 NNE 1028,1 5 0 0,0
21.02.2017 07:00:00 6,3 5,6 3,3 8,3 9,5 0 0 3 2 N 1027,9 4,2 0 0,0
21.02.2017 06:00:00 4,9 3,9 0,4 8,3 9,5 0 0 3 1 N 1027,7 0,8 0 0,0
21.02.2017 05:00:00 5,9 4,5 1,3 8,3 9,5 0 0 3 2 N 1027,6 3,2 0 0,0
21.02.2017 04:00:00 6,8 5,7 5,6 8,3 9,5 2 1 3 2 E 1027,9 6 0 0,0
21.02.2017 03:00:00 6,3 5,3 4,6 8,4 9,5 3 1 5 3 E 1028,5 4,1 0 0,0
21.02.2017 02:00:00 6,5 5,4 5,0 8,4 9,5 0 0 6 3 N 1028,8 5 0 0,0
21.02.2017 01:00:00 5,9 5,0 3,3 8,4 9,5 0 0 4 2 N 1028,7 6 0 0,0
21.02.2017 00:00:00 5,6 4,7 2,6 8,4 9,5 0 0 4 2 N 1028,7 7 0 0,0
20.02.2017 23:00:00 5,0 4,1 -1,2 8,4 9,5 0 0 6 3 N 1029,2 1,4 0 0,0
20.02.2017 22:00:00 5,5 4,0 0,8 8,4 9,5 2 1 3 2 NE 1029,0 8 0 0,0
20.02.2017 21:00:00 5,7 4,5 -0,2 8,4 9,5 0 0 6 3 N 1028,9 9 0 0,0
20.02.2017 20:00:00 6,4 4,6 0,4 8,4 9,5 0 0 4 2 N 1028,7 9 0 0,0
20.02.2017 19:00:00 8,7 5,6 2,6 8,4 9,5 3 1 4 2 SSE 1028,3 18 0 0,0
20.02.2017 18:00:00 11,4 5,9 11,4 8,3 9,5 0 0 4 2 N 1028,1 30 0 0,0
20.02.2017 17:00:00 11,8 5,9 14,0 8,2 9,5 0 0 4 2 N 1028,0 31 0 0,0
20.02.2017 16:00:00 11,7 6,4 15,6 8,2 9,5 2 1 7 4 WNW 1028,2 19 0 0,0
20.02.2017 15:00:00 11,1 7,0 15,4 8,2 9,5 - - 6 3 - 1028,4 15 0 0,0
20.02.2017 14:00:00 10,1 7,3 10,1 8,2 9,5 4 2 6 4 NE 1029,3 10 0 0,0
20.02.2017 13:00:00 7,6 5,7 8,5 8,2 9,5 0 0 5 3 N 1030,0 8 0 0,0
20.02.2017 12:00:00 6,5 5,3 7,2 8,2 9,5 4 2 6 3 E 1030,1 6 0 0,0
20.02.2017 11:00:00 5,3 4,4 5,7 8,2 9,5 4 2 6 4 ESE 1030,0 3,7 0 0,0
20.02.2017 10:00:00 4,1 3,5 4,3 8,3 9,5 3 2 7 4 ESE 1030,0 4,1 0 0,0
20.02.2017 09:00:00 3,5 2,9 3,5 8,4 9,5 4 2 9 5 E 1029,9 2,5 0 0,0
20.02.2017 08:00:00 3,4 3,0 -0,3 8,4 9,5 5 3 6 4 E 1029,3 2,9 0 0,0
20.02.2017 07:00:00 2,4 1,8 -1,3 8,4 9,5 0 0 3 2 N 1029,1 1,4 0 0,0
20.02.2017 06:00:00 2,8 1,9 -1,1 8,5 9,5 2 1 5 3 NNW 1029,0 1,0 0 0,0
20.02.2017 05:00:00 4,1 3,2 2,0 8,5 9,5 4 2 9 5 W 1029,1 6 0 0,0
20.02.2017 04:00:00 4,5 3,2 1,7 8,5 9,5 9 5 12 7 WSW 1029,1 9 0 0,0
20.02.2017 03:00:00 5,2 3,5 -0,7 8,6 9,5 8 4 11 6 WSW 1029,2 15 0 0,0
20.02.2017 02:00:00 4,9 2,6 0,8 8,6 9,5 8 4 11 6 W 1029,3 17 0 0,0
20.02.2017 01:00:00 6,4 3,7 0,8 8,7 9,5 8 4 11 6 WSW 1028,9 19 0 0,0
20.02.2017 00:00:00 6,2 4,5 -2,4 8,7 9,5 8 4 12 6 W 1028,9 18 0 0,0
19.02.2017 23:00:00 4,1 2,9 -2,2 8,7 9,5 4 2 6 4 W 1028,8 3,6 0 0,0
19.02.2017 22:00:00 5,6 4,7 -1,2 8,7 9,5 3 2 4 2 WNW 1028,2 4,7 0 0,0
19.02.2017 21:00:00 6,6 4,8 0,3 8,7 9,5 3 1 7 4 WNW 1028,0 8 0 0,0
19.02.2017 20:00:00 9,8 6,7 1,7 8,7 9,5 4 2 10 6 SW 1027,5 15 0 0,0
19.02.2017 19:00:00 10,0 5,6 2,1 8,6 9,5 3 2 6 4 W 1027,2 11 0 0,0
19.02.2017 18:00:00 11,9 6,8 9,6 8,5 9,5 6 3 10 5 NW 1026,8 18 8 0,0
19.02.2017 17:00:00 13,6 7,1 15,1 8,4 9,5 7 4 14 8 NW 1026,8 20 33 0,0
19.02.2017 16:00:00 14,4 7,9 22,0 8,3 9,5 8 5 22 12 NNW 1027,1 17 60 0,0
19.02.2017 15:00:00 14,0 8,4 23,2 8,2 9,5 12 6 20 11 NW 1027,3 17 60 0,0
19.02.2017 14:00:00 12,5 8,4 17,5 8,2 9,5 10 5 17 9 NNW 1027,6 13 37 0,0
19.02.2017 13:00:00 11,5 8,2 15,3 8,2 9,5 6 4 16 8 NW 1028,3 11 43 0,0
19.02.2017 12:00:00 8,7 7,6 9,7 8,2 9,5 6 3 10 5 E 1028,7 7 4 0,0
19.02.2017 11:00:00 6,1 5,7 6,1 8,3 9,5 7 4 9 5 E 1028,7 4,4 0 0,0
19.02.2017 10:00:00 4,2 3,9 4,3 8,4 9,5 5 3 10 5 E 1028,7 1,5 0 0,0
19.02.2017 09:00:00 3,2 2,8 3,0 8,4 9,5 6 4 11 6 E 1028,1 0,3 0 0,0
19.02.2017 08:00:00 2,7 2,3 -0,1 8,5 9,5 6 4 8 5 E 1027,4 0,2 0 0,0
19.02.2017 07:00:00 1,3 0,9 -4,5 8,5 9,5 2 1 5 3 E 1026,7 0,4 0 0,0
19.02.2017 06:00:00 0,9 0,3 -4,0 8,6 9,5 0 0 6 3 N 1026,4 0,3 0 0,0
19.02.2017 05:00:00 1,4 0,8 -3,8 8,7 9,5 5 3 6 4 ESE 1025,5 2,1 0 0,0
19.02.2017 04:00:00 2,2 1,5 -3,5 8,7 9,5 0 0 6 4 N 1025,0 1,1 0 0,0
19.02.2017 03:00:00 2,7 2,0 -3,2 8,8 9,5 5 3 7 4 E 1024,8 0,9 0 0,0
19.02.2017 02:00:00 3,3 2,4 -1,9 8,8 9,5 5 3 13 7 E 1024,5 7 0 0,0
19.02.2017 01:00:00 3,3 2,1 -1,1 8,8 9,5 9 5 11 6 ESE 1024,3 8 0 0,0
19.02.2017 00:00:00 4,0 2,5 -1,2 8,9 9,5 9 5 11 6 ESE 1023,8 11 0 0,0
18.02.2017 23:00:00 4,5 3,3 -1,7 8,9 9,5 8 4 13 7 E 1023,3 13 0 0,0
18.02.2017 22:00:00 4,9 3,1 -1,7 8,9 9,5 3 2 4 2 ESE 1022,9 18 0 0,0
18.02.2017 21:00:00 6,1 4,1 -0,8 8,9 9,5 2 1 3 2 N 1022,3 21 0 0,0
18.02.2017 20:00:00 7,8 4,9 0,3 8,8 9,5 0 0 2 1 N 1021,7 19 0 0,0
18.02.2017 19:00:00 11,1 5,0 2,8 8,8 9,5 0 0 3 2 N 1021,3 43 12 0,0
18.02.2017 18:00:00 15,5 5,4 11,5 8,7 9,4 0 0 6 3 N 1020,7 58 50 0,0
18.02.2017 17:00:00 16,6 5,8 17,2 8,6 9,4 2 1 7 4 ESE 1020,3 50 60 0,0
18.02.2017 16:00:00 17,1 6,0 25,5 8,5 9,4 5 3 13 7 ESE 1020,3 48 60 0,0
18.02.2017 15:00:00 16,9 5,8 30,5 8,5 9,4 5 3 11 6 ESE 1020,5 55 60 0,0
18.02.2017 14:00:00 14,8 7,6 26,4 8,4 9,4 7 4 14 8 ESE 1021,3 15 60 0,0
18.02.2017 13:00:00 12,3 7,8 13,3 8,5 9,4 10 5 21 11 E 1022,2 14 60 0,0
18.02.2017 12:00:00 9,1 6,5 13,3 8,5 9,4 13 7 18 10 ESE 1023,1 8 60 0,0
18.02.2017 11:00:00 6,5 5,9 7,3 8,5 9,4 9 5 12 7 ESE 1023,2 8 58 0,0
18.02.2017 10:00:00 3,8 3,5 3,5 8,6 9,4 8 5 12 7 ESE 1023,4 0,4 4 0,0
18.02.2017 09:00:00 2,6 2,3 0,1 8,6 9,4 6 3 9 5 ESE 1023,5 0,2 0 0,0
18.02.2017 08:00:00 1,5 1,1 -0,2 8,7 9,4 5 3 7 4 ESE 1023,1 0,1 0 0,0
18.02.2017 07:00:00 1,4 1,0 -1,4 8,8 9,4 4 2 7 4 ESE 1023,0 0,1 0 0,0
18.02.2017 06:00:00 1,6 1,2 -2,3 8,8 9,4 5 3 7 4 ESE 1023,1 0,1 0 0,0
18.02.2017 05:00:00 1,7 1,1 -3,2 8,9 9,4 4 2 6 4 ESE 1023,3 0,2 0 0,0
18.02.2017 04:00:00 2,6 2,0 -3,1 9,0 9,4 3 2 6 4 SE 1023,8 0,8 0 0,0
18.02.2017 03:00:00 2,1 1,4 -3,1 9,0 9,4 4 2 5 3 ESE 1024,2 5 0 0,0
18.02.2017 02:00:00 2,1 1,2 -3,0 9,1 9,4 0 0 0 0 N 1024,7 0,8 0 0,0
18.02.2017 01:00:00 3,0 2,0 -2,2 9,1 9,4 0 0 2 1 N 1025,1 0,7 0 0,0
18.02.2017 00:00:00 4,1 3,2 -2,0 9,1 9,4 2 1 4 2 ESE 1025,3 1,6 0 0,0
17.02.2017 23:00:00 4,9 3,9 -1,1 9,2 9,4 0 0 3 1 N 1025,5 6 0 0,0
17.02.2017 22:00:00 5,5 3,7 -0,6 9,2 9,4 0 0 3 2 N 1025,7 8 0 0,0
17.02.2017 21:00:00 6,5 4,7 0,2 9,1 9,4 0 0 2 1 N 1025,6 15 0 0,0
17.02.2017 20:00:00 8,8 5,0 1,7 9,1 9,4 0 0 5 3 N 1025,7 4,9 0 0,0
17.02.2017 19:00:00 12,6 6,0 5,6 9,0 9,4 4 2 10 5 WSW 1025,5 19 10 0,0
17.02.2017 18:00:00 15,1 6,6 12,8 8,9 9,4 7 4 11 6 NW 1025,2 13 60 0,0
17.02.2017 17:00:00 17,6 8,2 17,9 8,8 9,4 3 2 6 4 WNW 1025,4 18 60 0,0
17.02.2017 16:00:00 17,1 8,5 27,1 8,8 9,4 0 0 7 4 N 1025,9 16 60 0,0
17.02.2017 15:00:00 14,8 9,2 28,1 8,8 9,4 2 1 7 4 NNE 1026,6 35 60 0,0
17.02.2017 14:00:00 11,2 9,5 18,1 8,8 9,4 4 2 13 7 E 1027,7 11 57 0,0
17.02.2017 13:00:00 8,4 8,0 12,1 8,8 9,3 7 4 11 6 ESE 1028,7 1,2 8 0,0
17.02.2017 12:00:00 7,3 7,0 9,4 8,8 9,4 6 4 11 6 SE 1029,5 0,3 0 0,0
17.02.2017 11:00:00 5,8 5,5 7,3 8,8 9,3 7 4 11 6 ESE 1029,8 0,1 0 0,0
17.02.2017 10:00:00 4,9 4,6 5,4 8,9 9,3 8 4 12 7 ESE 1029,7 0,1 0 0,0
17.02.2017 09:00:00 4,4 4,1 4,4 8,9 9,3 8 5 11 6 E 1029,6 0,2 0 0,0
17.02.2017 08:00:00 4,3 3,9 3,1 9,0 9,3 8 4 11 6 ESE 1029,1 0,1 0 0,0
17.02.2017 07:00:00 3,5 3,1 0,0 9,0 9,3 5 3 6 4 ESE 1029,3 0,2 0 0,0
17.02.2017 06:00:00 2,4 2,0 -0,2 9,1 9,3 6 3 7 4 ESE 1029,3 0,1 0 0,0
17.02.2017 05:00:00 2,6 2,2 -1,7 9,1 9,3 4 2 6 3 E 1029,5 0,1 0 0,0
17.02.2017 04:00:00 2,8 2,2 -2,4 9,2 9,3 3 2 6 3 ESE 1029,7 0,6 0 0,0
17.02.2017 03:00:00 3,0 2,4 -2,1 9,3 9,3 4 2 5 3 ESE 1030,0 0,3 0 0,0
17.02.2017 02:00:00 3,2 2,5 -1,4 9,3 9,3 0 0 4 2 N 1030,2 1,0 0 0,0
17.02.2017 01:00:00 3,7 3,0 -1,3 9,4 9,3 4 2 7 4 ESE 1030,5 3,1 0 0,0

tt = Température de l'air
td = dewpoint
tt 5cm = Température de l'air 5cm
tt -20cm = Température de l'air -20cm
tt -100cm = Température de l'air -100cm
ff = Vitesse du vent
fx = gusts
dd = Direction du vent
ppp = reduced air pressure
vv = visibility
sd = Ensoleillement
rr = Quantités de précipitations

stations d'obs. à proximité